RPA5733 KJFK-KBOS

Flight info

Callsign RPA5733
Flight time N/A
Altitude 19000
Route MERIT ROBUC3
Aircraft E75L/M-SDE3GILORVW/S

Departure

Time 2026-05-04 22:15
Airport John F. Kennedy International Airport (KJFK)

Arrival

Time N/A
Airport Boston Logan International Airport (KBOS)
Time Latitude Longitude Altitude Speed Heading
2026-05-04 21:52 40.63726 -73.78020 21 ft 0 kts 264°
2026-05-04 21:52 40.63712 -73.78031 21 ft 0 kts 262°
2026-05-04 22:04 40.63713 -73.78025 21 ft 3 kts 262°
2026-05-04 22:04 40.63716 -73.77990 21 ft 4 kts 262°
2026-05-04 22:04 40.63720 -73.77956 21 ft 2 kts 262°
2026-05-04 22:05 40.63725 -73.77928 24 ft 4 kts 237°
2026-05-04 22:05 40.63746 -73.77911 24 ft 4 kts 180°
2026-05-04 22:05 40.63771 -73.77914 22 ft 4 kts 173°
2026-05-04 22:05 40.63792 -73.77918 21 ft 4 kts 173°
2026-05-04 22:06 40.63805 -73.77920 23 ft 0 kts 173°
2026-05-04 22:10 40.63785 -73.77916 21 ft 5 kts 171°
2026-05-04 22:10 40.63754 -73.77911 21 ft 8 kts 174°
2026-05-04 22:10 40.63681 -73.77902 21 ft 13 kts 174°
2026-05-04 22:10 40.63600 -73.77887 21 ft 10 kts 162°
2026-05-04 22:11 40.63545 -73.77810 20 ft 15 kts 121°
2026-05-04 22:11 40.63527 -73.77691 21 ft 11 kts 46°
2026-05-04 22:11 40.63612 -73.77623 18 ft 17 kts 29°
2026-05-04 22:11 40.63731 -73.77534 16 ft 22 kts 30°
2026-05-04 22:12 40.63864 -73.77426 18 ft 21 kts 30°
2026-05-04 22:12 40.63978 -73.77338 19 ft 18 kts 30°
2026-05-04 22:12 40.64075 -73.77263 21 ft 14 kts 32°
2026-05-04 22:12 40.64155 -73.77199 24 ft 13 kts 31°
2026-05-04 22:13 40.64244 -73.77129 21 ft 19 kts 32°
2026-05-04 22:13 40.64366 -73.77030 20 ft 22 kts 29°
2026-05-04 22:13 40.64503 -73.76985 17 ft 14 kts 11°
2026-05-04 22:13 40.64576 -73.76936 17 ft 13 kts 27°
2026-05-04 22:14 40.64656 -73.76869 17 ft 10 kts 51°
2026-05-04 22:14 40.64650 -73.76819 16 ft 8 kts 121°
2026-05-04 22:14 40.64614 -73.76741 16 ft 11 kts 122°
2026-05-04 22:14 40.64559 -73.76719 18 ft 10 kts 208°
2026-05-04 22:15 40.64340 -73.76888 18 ft 72 kts 210°
2026-05-04 22:15 40.63713 -73.77368 32 ft 133 kts 206°
2026-05-04 22:15 40.62946 -73.78044 738 ft 138 kts 219°
2026-05-04 22:15 40.62080 -73.78859 1177 ft 162 kts 212°
2026-05-04 22:16 40.61094 -73.79624 1923 ft 169 kts 212°
2026-05-04 22:16 40.60042 -73.80390 2612 ft 176 kts 213°
2026-05-04 22:16 40.58914 -73.81177 3211 ft 191 kts 212°
2026-05-04 22:16 40.57658 -73.82004 3775 ft 215 kts 205°
2026-05-04 22:17 40.56086 -73.82206 4320 ft 246 kts 174°
2026-05-04 22:17 40.54471 -73.81182 4859 ft 274 kts 143°
2026-05-04 22:17 40.53357 -73.79099 5637 ft 287 kts 114°
2026-05-04 22:17 40.53081 -73.76495 6430 ft 293 kts 85°
2026-05-04 22:18 40.53736 -73.73962 7096 ft 296 kts 56°
2026-05-04 22:18 40.54621 -73.72612 7545 ft 294 kts 40°
2026-05-04 22:18 40.56188 -73.70875 8247 ft 295 kts 37°
2026-05-04 22:18 40.57749 -73.69106 8881 ft 298 kts 38°
2026-05-04 22:19 40.59321 -73.67295 9513 ft 302 kts 38°
2026-05-04 22:19 40.60914 -73.65475 10169 ft 304 kts 37°
2026-05-04 22:19 40.62557 -73.63594 10350 ft 324 kts 38°
2026-05-04 22:19 40.64389 -73.61760 10435 ft 337 kts 24°
2026-05-04 22:20 40.66638 -73.60796 10653 ft 343 kts
2026-05-04 22:20 40.68987 -73.60187 11137 ft 346 kts
2026-05-04 22:20 40.71268 -73.59212 11714 ft 352 kts 18°
2026-05-04 22:20 40.73493 -73.57826 12285 ft 356 kts 23°
2026-05-04 22:21 40.75687 -73.56261 12852 ft 360 kts 25°
2026-05-04 22:21 40.77879 -73.54631 13457 ft 363 kts 25°
2026-05-04 22:21 40.80094 -73.52977 14029 ft 367 kts 25°
2026-05-04 22:21 40.82319 -73.51322 14641 ft 368 kts 25°
2026-05-04 22:22 40.84562 -73.49656 15246 ft 370 kts 25°
2026-05-04 22:22 40.86818 -73.47986 15841 ft 374 kts 25°
2026-05-04 22:22 40.89098 -73.46306 16437 ft 376 kts 25°
2026-05-04 22:22 40.91401 -73.44630 17016 ft 379 kts 24°
2026-05-04 22:23 40.93726 -73.42958 17601 ft 381 kts 24°
2026-05-04 22:23 40.96075 -73.41293 18121 ft 385 kts 24°
2026-05-04 22:23 40.98455 -73.39626 18596 ft 386 kts 23°
2026-05-04 22:23 41.00848 -73.37966 18941 ft 392 kts 23°
2026-05-04 22:24 41.03281 -73.36346 18914 ft 390 kts 21°
2026-05-04 22:24 41.05772 -73.34755 18919 ft 403 kts 21°
2026-05-04 22:24 41.08313 -73.33132 18914 ft 408 kts 21°
2026-05-04 22:24 41.10877 -73.31485 18913 ft 410 kts 21°
2026-05-04 22:25 41.13451 -73.29829 18918 ft 411 kts 22°
2026-05-04 22:25 41.15988 -73.28193 18922 ft 411 kts 22°
2026-05-04 22:25 41.18563 -73.26532 18913 ft 412 kts 22°
2026-05-04 22:25 41.21141 -73.24873 18898 ft 411 kts 22°
2026-05-04 22:26 41.23717 -73.23206 18897 ft 411 kts 22°
2026-05-04 22:26 41.26288 -73.21542 18898 ft 412 kts 22°
2026-05-04 22:26 41.28861 -73.19875 18896 ft 412 kts 22°
2026-05-04 22:26 41.31440 -73.18202 18900 ft 412 kts 22°
2026-05-04 22:27 41.34012 -73.16534 18899 ft 411 kts 22°
2026-05-04 22:27 41.36541 -73.14725 18922 ft 416 kts 31°
2026-05-04 22:27 41.38576 -73.11940 18927 ft 427 kts 54°
2026-05-04 22:27 41.39694 -73.08264 18942 ft 434 kts 77°
2026-05-04 22:28 41.39930 -73.04244 18970 ft 437 kts 87°
2026-05-04 22:28 41.40074 -73.00204 18890 ft 435 kts 85°
2026-05-04 22:28 41.40353 -72.96240 18902 ft 435 kts 82°
2026-05-04 22:28 41.40716 -72.92244 18897 ft 433 kts 81°
2026-05-04 22:29 41.41108 -72.88264 18899 ft 433 kts 81°
2026-05-04 22:29 41.41512 -72.84291 18898 ft 433 kts 81°
2026-05-04 22:29 41.41921 -72.80312 18895 ft 433 kts 81°
2026-05-04 22:29 41.42329 -72.76340 18903 ft 433 kts 81°
2026-05-04 22:30 41.42738 -72.72366 18910 ft 433 kts 81°
2026-05-04 22:30 41.43146 -72.68381 18908 ft 433 kts 81°
2026-05-04 22:30 41.43553 -72.64409 18915 ft 433 kts 81°
2026-05-04 22:30 41.43959 -72.60427 18916 ft 433 kts 81°
2026-05-04 22:31 41.44364 -72.56448 18907 ft 433 kts 81°
2026-05-04 22:31 41.44766 -72.52475 18919 ft 433 kts 81°
2026-05-04 22:31 41.45167 -72.48495 18909 ft 433 kts 81°
2026-05-04 22:31 41.45566 -72.44520 18920 ft 433 kts 81°
2026-05-04 22:32 41.45960 -72.40591 18916 ft 433 kts 81°
2026-05-04 22:32 41.46357 -72.36613 18911 ft 433 kts 81°
2026-05-04 22:32 41.46753 -72.32628 18917 ft 433 kts 81°
2026-05-04 22:32 41.47147 -72.28649 18898 ft 433 kts 81°
2026-05-04 22:33 41.47541 -72.24667 18908 ft 432 kts 81°
2026-05-04 22:33 41.48011 -72.20727 18917 ft 430 kts 73°
2026-05-04 22:33 41.49086 -72.17029 18912 ft 427 kts 61°
2026-05-04 22:33 41.50462 -72.13530 18884 ft 426 kts 59°
2026-05-04 22:34 41.51831 -72.10027 18899 ft 426 kts 60°
2026-05-04 22:34 41.53168 -72.06492 18894 ft 425 kts 60°
2026-05-04 22:34 41.54472 -72.02986 18898 ft 426 kts 61°
2026-05-04 22:34 41.55779 -71.99434 18890 ft 426 kts 61°
2026-05-04 22:35 41.56981 -71.95797 18573 ft 430 kts 66°
2026-05-04 22:35 41.58037 -71.92101 18183 ft 418 kts 67°
2026-05-04 22:35 41.59052 -71.88549 17769 ft 401 kts 66°
2026-05-04 22:35 41.60044 -71.85145 17353 ft 387 kts 66°
2026-05-04 22:36 41.61009 -71.81848 16893 ft 376 kts 66°
2026-05-04 22:36 41.61952 -71.78629 16423 ft 367 kts 66°
2026-05-04 22:36 41.62874 -71.75491 15953 ft 359 kts 67°
2026-05-04 22:36 41.63779 -71.72417 15498 ft 352 kts 67°
2026-05-04 22:37 41.64669 -71.69391 15056 ft 346 kts 67°
2026-05-04 22:37 41.65544 -71.66416 14608 ft 341 kts 67°
2026-05-04 22:37 41.66409 -71.63472 14167 ft 339 kts 67°
2026-05-04 22:37 41.67257 -71.60584 13748 ft 338 kts 68°
2026-05-04 22:38 41.68125 -71.57620 13266 ft 337 kts 68°
2026-05-04 22:38 41.68976 -71.54705 12799 ft 336 kts 67°
2026-05-04 22:38 41.69821 -71.51835 12315 ft 334 kts 66°
2026-05-04 22:38 41.70658 -71.48975 12322 ft 315 kts 67°
2026-05-04 22:39 41.71385 -71.46446 13779 ft 280 kts 68°